Stations météo

réclame
Mon MeteoGroup
Mannheim, Allemagne (10729): Température de l'air & dewpoint: 18.01.2018 10:00:00 - 24.01.2018 10:00:00 (CET)Mannheim, Allemagne (10729): Température de l'air 5cm & Température de l'air -5cm: 18.01.2018 10:00:00 - 24.01.2018 10:00:00 (CET)Mannheim, Allemagne (10729): Température de l'air -20cm & Température de l'air -100cm: 18.01.2018 10:00:00 - 24.01.2018 10:00:00 (CET)Mannheim, Allemagne (10729): Vitesse du vent & gusts: 18.01.2018 10:00:00 - 24.01.2018 10:00:00 (CET)Mannheim, Allemagne (10729): Direction du vent: 18.01.2018 10:00:00 - 24.01.2018 10:00:00 (CET)Mannheim, Allemagne (10729): reduced air pressure: 18.01.2018 10:00:00 - 24.01.2018 10:00:00 (CET)Mannheim, Allemagne (10729): visibility: 18.01.2018 10:00:00 - 24.01.2018 10:00:00 (CET)Mannheim, Allemagne (10729): Ensoleillement: 18.01.2018 10:00:00 - 24.01.2018 10:00:00 (CET)Mannheim, Allemagne (10729): Quantités de précipitations: 18.01.2018 10:00:00 - 24.01.2018 10:00:00 (CET)
Date & Time tt [°C] td [°C] tt 5cm [°C] tt -5cm [°C] tt -20cm [°C] tt -100cm [°C] ff [km/h] ff [knt] fx [km/h] fx [knt] dd ppp [hPa] vv [km] sd [min] rr [mm]
24.01.2018 10:00:00 9,1 7,0 9,1 6,9 5,5 6,9 19 10 30 16 S 1024,4 45 0 0,0
24.01.2018 09:00:00 8,6 6,7 8,2 6,3 5,4 6,9 20 11 31 17 S 1024,2 45 0 0,0
24.01.2018 08:00:00 8,1 6,4 7,6 6,1 5,4 6,9 17 9 32 18 S 1024,5 46 0 0,0
24.01.2018 07:00:00 8,0 6,3 7,4 6,0 5,4 6,9 22 12 29 16 S 1024,5 41 0 0,0
24.01.2018 06:00:00 7,8 6,2 7,2 6,0 5,4 6,9 19 11 27 15 S 1024,5 44 0 0,0
24.01.2018 05:00:00 8,0 5,7 7,5 6,0 5,4 6,9 17 9 29 16 S 1024,7 46 0 0,0
24.01.2018 04:00:00 8,0 5,2 7,4 5,9 5,3 6,9 22 12 31 17 S 1024,6 43 0 0,0
24.01.2018 03:00:00 8,1 4,7 7,5 5,9 5,3 6,9 19 11 36 19 SSE 1025,1 46 0 0,0
24.01.2018 02:00:00 8,0 4,6 7,4 5,8 5,3 6,9 19 10 32 17 S 1025,3 50 0 0,0
24.01.2018 01:00:00 7,8 4,5 7,2 5,8 5,3 6,9 21 11 29 16 S 1025,5 42 0 0,0
24.01.2018 00:00:00 7,8 4,4 7,1 5,7 5,3 6,9 19 10 31 17 S 1025,5 44 0 0,0
23.01.2018 23:00:00 7,9 4,3 7,3 5,8 5,3 6,9 21 11 31 17 S 1025,7 46 0 0,0
23.01.2018 22:00:00 8,0 4,6 7,3 5,8 5,3 6,9 22 12 35 19 S 1025,5 37 0 0,0
23.01.2018 21:00:00 7,9 5,1 7,2 5,7 5,3 6,9 16 9 22 12 S 1025,6 31 0 0,0
23.01.2018 20:00:00 7,7 4,9 6,9 5,6 5,3 6,9 16 9 26 14 S 1025,9 32 0 0,0
23.01.2018 19:00:00 7,1 4,7 5,3 5,8 5,3 6,9 15 8 22 12 S 1026,1 34 0 0,0
23.01.2018 18:00:00 7,9 5,2 7,0 6,3 5,2 6,9 16 9 26 14 S 1026,0 30 0 0,0
23.01.2018 17:00:00 8,0 5,4 7,3 6,7 5,1 6,9 15 8 23 13 S 1026,0 31 0 0,0
23.01.2018 16:00:00 8,2 5,5 7,9 7,1 5,0 6,9 13 7 21 11 S 1025,9 35 0 0,0
23.01.2018 15:00:00 8,3 5,2 8,1 7,3 4,8 6,9 15 8 25 13 S 1026,1 35 0 0,0
23.01.2018 14:00:00 8,5 5,7 8,8 7,3 4,7 6,9 16 8 22 12 S 1026,3 33 2 0,0
23.01.2018 13:00:00 8,0 5,5 8,0 6,6 4,6 6,9 13 7 24 13 S 1026,8 33 0 0,0
23.01.2018 12:00:00 7,9 5,7 7,8 6,1 4,5 6,9 13 7 19 10 S 1027,1 27 0 0,0
23.01.2018 11:00:00 7,4 5,6 7,4 5,5 4,5 7,0 7 4 14 8 S 1027,1 24 0 0,0
23.01.2018 10:00:00 6,2 4,9 5,8 4,7 4,5 7,0 9 5 11 6 SE 1026,4 20 0 0,0
23.01.2018 09:00:00 6,8 4,5 5,8 4,4 4,5 7,0 8 4 19 10 SSW 1025,9 27 0 0,0
23.01.2018 08:00:00 7,1 4,4 6,0 4,4 4,5 7,0 14 7 22 12 SW 1025,0 30 0 0,0
23.01.2018 07:00:00 7,0 4,0 5,8 4,4 4,5 7,0 10 6 18 10 WSW 1024,3 40 0 0,0
23.01.2018 06:00:00 6,8 4,0 5,3 4,4 4,5 7,0 11 6 23 12 SW 1023,9 42 0 0,0
23.01.2018 05:00:00 7,4 3,9 6,5 4,5 4,5 7,0 12 7 23 13 WSW 1023,3 39 0 0,0
23.01.2018 04:00:00 7,2 4,2 6,3 4,5 4,4 7,0 12 7 19 11 WSW 1022,7 34 0 0,0
23.01.2018 03:00:00 7,2 4,2 6,2 4,5 4,4 7,0 10 6 21 11 WSW 1022,4 35 0 0,0
23.01.2018 02:00:00 7,3 4,3 6,1 4,5 4,4 7,0 13 7 25 14 WSW 1021,2 34 0 0,0
23.01.2018 01:00:00 7,2 3,3 5,9 4,4 4,4 7,0 14 8 29 15 SW 1020,4 49 0 0,0
23.01.2018 00:00:00 7,9 2,3 7,0 4,5 4,4 7,0 18 10 30 16 W 1019,6 50 0 0,0
22.01.2018 23:00:00 7,5 3,5 6,4 4,6 4,4 7,0 18 10 31 17 W 1018,3 49 0 0,0
22.01.2018 22:00:00 7,8 5,1 6,9 4,7 4,4 7,0 16 9 24 13 W 1017,4 33 0 0,0
22.01.2018 21:00:00 5,9 5,7 4,8 4,7 4,4 7,0 6 4 10 5 NW 1016,3 13 0 0,0
22.01.2018 20:00:00 5,8 5,8 4,8 4,8 4,4 7,0 2 1 9 5 W 1015,2 8 0 0,0
22.01.2018 19:00:00 6,2 6,2 5,2 5,0 4,3 7,0 4 2 9 5 NW 1013,9 6 0 0,0
22.01.2018 18:00:00 7,0 7,0 5,3 5,4 4,2 7,0 5 3 9 5 NW 1012,1 4,8 0 0,0
22.01.2018 17:00:00 7,4 7,3 6,8 5,8 4,0 7,0 5 3 16 9 NNW 1010,8 4,9 0 0,0
22.01.2018 16:00:00 8,0 8,0 7,4 5,9 3,9 7,0 5 3 9 5 NW 1009,5 6 0 0,0
22.01.2018 15:00:00 7,8 7,8 7,6 6,0 3,7 7,0 2 1 9 5 SE 1008,6 7 0 0,0
22.01.2018 14:00:00 7,3 7,3 7,3 5,5 3,5 7,0 4 2 8 5 SSE 1008,7 4,3 0 0,0
22.01.2018 13:00:00 6,2 6,2 6,3 5,1 3,4 7,0 6 3 8 4 ESE 1009,1 5 0 0,1
22.01.2018 12:00:00 5,4 5,4 5,6 4,2 3,4 7,0 5 3 9 5 SSE 1009,7 3,1 0 0,3
22.01.2018 11:00:00 4,4 4,4 4,3 3,5 3,3 7,0 6 4 13 7 SSE 1009,8 2,9 0 0,6
22.01.2018 10:00:00 3,7 3,7 3,6 3,0 3,3 7,0 8 5 16 8 SSE 1009,9 3,5 0 0,2
22.01.2018 09:00:00 3,2 3,2 3,0 2,7 3,3 7,0 8 4 21 11 SSE 1010,2 2,0 0 0,2
22.01.2018 08:00:00 2,9 2,9 2,7 2,5 3,3 7,0 14 7 19 11 SSE 1009,9 2,0 0 0,7
22.01.2018 07:00:00 2,6 2,6 2,4 2,3 3,3 7,1 8 4 13 7 SSE 1010,5 2,0 0 0,1
22.01.2018 06:00:00 2,3 2,3 2,0 2,2 3,3 7,1 4 2 14 7 ESE 1010,8 6 0 0,4
22.01.2018 05:00:00 2,1 2,1 1,9 2,0 3,3 7,1 7 4 14 8 S 1011,1 2,8 0 0,2
22.01.2018 04:00:00 2,0 2,0 1,7 1,7 3,4 7,1 12 6 18 10 SE 1011,1 1,7 0 0,7
22.01.2018 03:00:00 0,7 0,7 0,3 1,4 3,4 7,1 11 6 21 11 SSE 1012,1 2,9 0 0,6
22.01.2018 02:00:00 0,8 0,6 0,3 1,8 3,5 7,1 14 8 21 11 SE 1013,0 2,1 0 1,1
22.01.2018 01:00:00 2,5 0,7 1,6 1,9 3,5 7,1 14 8 24 13 SSE 1014,5 9 0 0,1
22.01.2018 00:00:00 2,4 -0,2 1,8 1,7 3,6 7,1 13 7 18 10 SSE 1015,6 36 0 0,0
21.01.2018 23:00:00 1,9 0,0 0,8 1,5 3,7 7,1 11 6 13 7 SSE 1016,2 30 0 0,0
21.01.2018 22:00:00 1,5 0,0 0,2 1,5 3,8 7,1 9 5 12 6 SE 1017,6 26 0 0,0
21.01.2018 21:00:00 1,2 0,2 -0,1 1,5 3,9 7,1 9 5 12 7 SSE 1018,5 25 0 0,0
21.01.2018 20:00:00 0,2 -0,3 -1,9 1,5 4,0 7,1 9 5 11 6 SSE 1019,1 18 0 0,0
21.01.2018 19:00:00 1,2 -0,3 -1,4 2,2 4,1 7,1 8 4 11 6 SSE 1019,3 30 0 0,0
21.01.2018 18:00:00 1,2 -0,4 -0,9 2,8 4,1 7,1 6 3 11 6 SW 1019,6 15 0 0,0
21.01.2018 17:00:00 4,4 0,3 2,9 3,8 4,0 7,1 6 4 12 7 W 1019,3 52 0 0,0
21.01.2018 16:00:00 4,5 0,6 3,6 4,2 4,0 7,1 7 4 16 9 WNW 1018,9 49 0 0,1
21.01.2018 15:00:00 5,0 -0,3 4,7 4,5 3,9 7,1 9 5 19 10 W 1018,6 70 0 0,0
21.01.2018 14:00:00 5,1 -0,1 5,2 4,7 3,8 7,1 12 6 21 11 W 1018,0 54 0 0,0
21.01.2018 13:00:00 4,8 -0,4 4,8 4,7 3,7 7,1 13 7 30 16 WNW 1018,0 70 7 0,0
21.01.2018 12:00:00 4,5 0,1 4,5 4,3 3,6 7,1 15 8 26 14 W 1017,6 52 36 0,0
21.01.2018 11:00:00 4,4 0,8 5,0 3,5 3,6 7,1 13 7 21 12 W 1016,7 29 40 0,0
21.01.2018 10:00:00 3,7 0,9 3,6 2,8 3,6 7,1 11 6 20 11 WNW 1015,6 32 35 0,0
21.01.2018 09:00:00 2,5 0,9 0,8 2,4 3,7 7,1 9 5 30 16 NW 1014,4 34 0 0,1
21.01.2018 08:00:00 3,1 0,9 2,3 2,5 3,7 7,1 13 7 24 13 WNW 1012,7 34 0 0,0
21.01.2018 07:00:00 2,7 1,3 2,0 2,3 3,7 7,1 8 4 15 8 WNW 1011,4 42 0 0,0
21.01.2018 06:00:00 2,8 1,5 2,0 2,3 3,8 7,2 6 3 23 12 WNW 1010,1 30 0 0,0
21.01.2018 05:00:00 2,7 1,4 1,6 2,6 3,8 7,1 13 7 23 13 WNW 1008,7 33 0 0,0
21.01.2018 04:00:00 2,5 1,7 2,0 2,6 3,8 7,1 8 4 14 8 WNW 1007,5 27 0 0,0
21.01.2018 03:00:00 2,2 1,6 1,8 2,7 3,9 7,1 8 4 13 7 W 1006,1 14 0 0,1
21.01.2018 02:00:00 1,8 1,7 1,5 2,7 3,9 7,1 5 3 11 6 WNW 1004,4 9 0 0,0
21.01.2018 01:00:00 1,9 1,7 1,7 2,9 3,9 7,1 6 3 10 5 WNW 1002,9 6 0 0,2
21.01.2018 00:00:00 2,1 2,0 2,0 3,0 3,9 7,1 6 3 10 6 NW 1002,0 3,2 0 0,0
20.01.2018 23:00:00 2,4 2,2 2,2 3,1 4,0 7,1 6 3 9 5 NW 1001,0 7 0 0,0
20.01.2018 22:00:00 2,4 2,2 2,1 3,1 4,0 7,1 4 2 8 4 W 1000,4 10 0 0,0
20.01.2018 21:00:00 2,3 2,1 2,1 3,1 4,0 7,1 6 4 11 6 S 1000,2 14 0 0,1
20.01.2018 20:00:00 2,3 2,3 2,0 3,1 4,0 7,1 4 2 13 7 SW 999,9 8 0 0,8
20.01.2018 19:00:00 2,5 2,3 2,1 3,3 4,0 7,1 8 4 13 7 S 999,9 8 0 1,3
20.01.2018 18:00:00 2,8 2,3 2,4 3,5 4,0 7,2 10 5 13 7 SSE 1000,4 8 0 2,2
20.01.2018 17:00:00 3,2 2,8 2,9 3,8 4,0 7,2 6 3 18 10 E 1001,2 8 0 1,5
20.01.2018 16:00:00 3,6 2,7 3,1 4,0 4,0 7,2 12 7 26 14 ESE 1002,0 14 0 0,9
20.01.2018 15:00:00 3,9 3,4 3,6 4,2 3,9 7,3 16 8 28 15 SSE 1003,4 7 0 1,4
20.01.2018 14:00:00 4,0 3,4 3,8 4,2 3,8 7,3 16 9 26 14 SSE 1005,4 8 0 0,8
20.01.2018 13:00:00 4,0 3,3 3,8 4,1 3,7 7,3 15 8 29 16 S 1007,4 11 0 0,2
20.01.2018 12:00:00 4,1 2,8 3,8 4,0 3,7 7,3 18 10 32 17 S 1009,1 38 0 0,0
20.01.2018 11:00:00 4,5 2,9 4,3 3,6 3,6 7,3 15 8 25 14 S 1009,9 36 0 0,0
20.01.2018 10:00:00 3,5 2,4 3,1 2,9 3,6 7,3 16 9 22 12 S 1011,0 41 0 0,0
20.01.2018 09:00:00 2,8 2,3 2,4 2,4 3,7 7,3 13 7 16 8 SSE 1011,5 18 0 0,0
20.01.2018 08:00:00 2,2 1,9 1,4 2,3 3,7 7,3 11 6 16 8 SSE 1011,8 20 0 0,0
20.01.2018 07:00:00 2,4 2,2 1,9 2,3 3,7 7,3 7 4 20 11 S 1012,2 27 0 0,1
20.01.2018 06:00:00 2,4 1,8 1,7 2,3 3,8 7,3 10 5 23 12 S 1012,3 31 0 0,0
20.01.2018 05:00:00 2,3 1,7 1,8 2,3 3,8 7,3 16 9 29 15 SSW 1012,7 70 0 0,5
20.01.2018 04:00:00 3,0 1,9 2,1 2,1 3,9 7,3 11 6 19 10 SW 1013,0 22 0 0,1
20.01.2018 03:00:00 2,3 1,7 1,4 2,0 3,9 7,3 13 7 18 10 SE 1013,1 25 0 0,0
20.01.2018 02:00:00 1,8 1,3 0,7 1,8 4,0 7,3 10 5 16 8 SSE 1013,6 21 0 0,0
20.01.2018 01:00:00 1,9 1,4 0,8 2,1 4,1 7,3 16 9 19 11 SSE 1013,9 21 0 0,0
20.01.2018 00:00:00 2,2 1,6 0,8 2,3 4,2 7,3 9 5 14 7 SSE 1014,0 22 0 0,0
19.01.2018 23:00:00 2,6 2,1 1,2 2,6 4,3 7,3 9 5 14 7 S 1013,7 26 0 0,0
19.01.2018 22:00:00 2,5 2,1 1,3 2,7 4,3 7,3 11 6 14 8 S 1013,4 36 0 0,0
19.01.2018 21:00:00 3,3 2,3 2,4 3,2 4,3 7,3 8 4 16 9 SSW 1012,8 46 0 0,0
19.01.2018 20:00:00 3,2 2,5 2,4 3,3 4,4 7,3 9 5 15 8 S 1012,4 23 0 0,0
19.01.2018 19:00:00 3,6 3,0 2,7 3,6 4,4 7,3 11 6 18 10 S 1012,1 26 0 0,1
19.01.2018 18:00:00 4,2 2,7 3,3 3,9 4,4 7,3 13 7 17 9 S 1011,9 42 0 0,0
19.01.2018 17:00:00 4,0 2,6 2,8 4,2 4,4 7,3 10 6 16 9 SSE 1011,9 49 0 0,0
19.01.2018 16:00:00 4,3 2,3 3,2 4,6 4,3 7,3 8 5 18 10 S 1012,0 43 0 0,0
19.01.2018 15:00:00 3,9 2,6 2,8 5,1 4,2 7,3 7 4 41 22 SW 1012,1 49 11 0,7
19.01.2018 14:00:00 6,2 0,8 5,9 5,7 4,0 7,3 11 6 31 17 SW 1012,3 66 32 0,1
19.01.2018 13:00:00 6,6 0,2 6,9 5,8 3,9 7,3 13 7 26 14 WSW 1012,8 61 23 0,0
19.01.2018 12:00:00 5,3 0,9 4,5 4,0 3,9 7,3 16 9 31 17 SW 1013,3 7 3 0,0
19.01.2018 11:00:00 5,4 0,4 4,9 3,2 3,9 7,3 12 7 25 14 SW 1012,8 70 1 0,0
19.01.2018 10:00:00 4,9 0,9 4,1 2,6 4,0 7,4 14 8 30 16 SW 1011,9 64 0 0,0
19.01.2018 09:00:00 4,1 1,2 3,1 2,1 4,0 7,4 11 6 26 14 SW 1011,1 70 0 0,0
19.01.2018 08:00:00 2,5 1,3 0,9 1,8 4,1 7,4 9 5 15 8 SSW 1010,1 70 0 0,0
19.01.2018 07:00:00 3,4 1,5 0,7 2,3 4,2 7,4 8 4 22 12 SSW 1009,0 70 0 0,0
19.01.2018 06:00:00 4,3 1,5 2,4 2,6 4,2 7,4 10 6 27 15 WSW 1008,1 70 0 0,0
19.01.2018 05:00:00 5,2 2,2 4,1 2,9 4,3 7,4 17 9 29 16 WSW 1007,1 70 0 0,0
19.01.2018 04:00:00 4,6 2,7 2,7 2,8 4,3 7,4 16 8 26 14 SW 1006,0 70 0 0,0
19.01.2018 03:00:00 4,3 3,4 3,1 3,3 4,4 7,4 13 7 24 13 SSW 1005,8 70 0 0,0
19.01.2018 02:00:00 3,8 3,5 3,0 3,6 4,4 7,4 11 6 45 24 SSW 1005,4 50 0 2,3
19.01.2018 01:00:00 5,6 4,6 4,7 4,0 4,4 7,4 16 9 48 26 W 1005,0 3,3 0 0,7
19.01.2018 00:00:00 6,5 4,4 5,5 3,6 4,4 7,4 14 8 24 13 S 1004,2 24 0 0,0
18.01.2018 23:00:00 6,0 3,7 4,6 3,3 4,5 7,4 10 5 18 10 S 1005,0 34 0 0,0
18.01.2018 22:00:00 5,0 3,1 3,2 3,1 4,5 7,4 6 4 18 10 S 1005,3 32 0 0,0
18.01.2018 21:00:00 5,1 1,5 1,5 3,3 4,6 7,4 13 7 19 11 S 1005,1 42 0 0,0
18.01.2018 20:00:00 7,2 0,4 3,1 3,5 4,7 7,4 9 5 21 11 SW 1004,7 70 0 0,0
18.01.2018 19:00:00 8,2 0,2 6,0 3,7 4,7 7,4 13 7 35 19 W 1003,8 70 0 0,0
18.01.2018 18:00:00 9,0 -0,4 7,2 4,3 4,6 7,4 23 12 40 22 W 1003,2 70 0 0,0
18.01.2018 17:00:00 9,6 1,2 8,0 5,1 4,6 7,4 16 9 39 21 WNW 1002,5 51 26 0,0
18.01.2018 16:00:00 11,3 0,7 9,8 5,8 4,4 7,4 26 14 53 29 W 1001,7 56 44 0,0
18.01.2018 15:00:00 11,4 3,7 9,8 6,2 4,3 7,4 26 14 55 30 WSW 1000,9 41 17 0,0
18.01.2018 14:00:00 11,9 5,0 11,2 6,4 4,1 7,4 32 17 68 37 WSW 1000,5 70 13 0,0
18.01.2018 13:00:00 9,9 6,1 9,4 5,4 4,0 7,4 31 17 60 32 SW 1000,1 70 0 0,0
18.01.2018 12:00:00 7,8 5,5 6,6 4,7 3,9 7,4 27 15 50 27 S 1000,8 70 0 0,0
18.01.2018 11:00:00 7,0 4,7 5,8 4,2 3,9 7,5 34 19 66 36 S 1001,6 70 0 0,0
18.01.2018 10:00:00 5,8 3,8 4,9 3,6 3,8 7,5 39 21 61 33 SSW 1001,0 70 0 0,0

tt = Température de l'air
td = dewpoint
tt 5cm = Température de l'air 5cm
tt -5cm = Température de l'air -5cm
tt -20cm = Température de l'air -20cm
tt -100cm = Température de l'air -100cm
ff = Vitesse du vent
fx = gusts
dd = Direction du vent
ppp = reduced air pressure
vv = visibility
sd = Ensoleillement
rr = Quantités de précipitations

stations d'obs. à proximité